Location: Bakhuizen
(52.8696°N, 5.4575°E)
Time: 01:52:14
(UTC+00:00)

Cosmos 773 Rocket - Pass Details

Date: 25 September 2021
Orbit: 745 x 777 km, 74.1° (Epoch: 23 October)

Event Time Altitude Azimuth Distance (km) Brightness Sun altitude
Rises 18:40:34 0° 332° (NNW) 3,244 7.9 -11.5°
Reaches altitude 10° 18:42:58 10° 329° (NNW) 2,318 7.2 -11.9°
Maximum altitude 18:48:09 60° 250° (WSW) 886 4.6 -12.6°
Drops below altitude 10° 18:53:19 10° 172° (S) 2,319 6.3 -13.4°
Sets 18:55:43 0° 169° (S) 3,244 7.0 -13.7°
